STARLINK-4076 (52667 NORAD) Tracking and Keplerian Element Data

This shows tracking and keplerian element data for the satellite.

Feedback or suggestion? Click here.




ElementValue
Catalog52667
NameSTARLINK-4076
Epoch Orbit130
Epoch Day192.91667824
Epoch Year2022
RAAN35.3997
Inclination53.2175
Eccentricity0.0001867
Argument of Perigee40.26
Mean Anonmoly75.4579
Mean Motion15.20244358
Decay Rate-0.00725218
L11 52667U 22053M 22192.91667824 -.00725218 00000+0 -35432-1 0 9991
L22 52667 53.2175 35.3997 0001867 40.2600 75.4579 15.20244358 1306

Live tracking and technical data element details for STARLINK-4076 (NORAD 52667). STARLINK-4076 can be tracked NOW for your location showing map with azimuth and elevation plus other details from your city location.

Track the satellite on the map from your city or location and see movement details for azimuth, elevation, latitude, longitude, range, height, and movement on the map or in text.







IsCatalogInMostPopularTable: catalog: 52667, numindb: 6
Update: records affected: 1



GetName: 52667 STARLINK-4076

Hit Count: updated at: Sun, 14 Aug 2022 01:28:09 GMT